Weather in Langfang

China     39°23′19″N   116°45′00″E
temp.,
°C
wind,
m/s
gust,
m/s
humid.,
%
clouds,
%
prec.,
mm/h
press.,
hPa
HPBL,
m
25 february, thu
thu2523:00+2ene2356100 0.0 102682
02:00+1ene2364100 0.0 1025113
05:000ne22771 0.0 102649
08:00+1ne347350 0.0 1027173
11:00+6ene22500 0.0 1027695
14:00+9ne11370 0.0 10251165
17:00+9e12380 0.0 10251062
20:00+5sse47590 0.0 1027347
26 february, fri
fri2623:00+2se12690 0.0 102996
02:00+1se11720 0.0 102848
05:000se01760 0.0 102822
08:00+1ne11690 0.0 102953
11:00+7wnw11480 0.0 1029491
14:00+11ssw22360 0.0 1026859
17:00+11s33310 0.0 10251081
20:00+7s474032 0.0 1026200
27 february, sat
sat2723:00+5s3738100 0.0 1028194
02:00+4s3740100 0.0 1027198
05:00+2s234195 0.0 102591
08:00+3se124472 0.0 102681
11:00+10ssw47330 0.0 1025909
14:00+14ssw57240 0.0 10231795
17:00+14s58210 0.0 10221842
20:00+9sse49250 0.0 1023280
28 february, sun
sun2823:00+9sse362881 0.0 1023209
02:00+9s374991 0.0 1023237
05:00+7s2578100 2.3 1022276
08:00+6sse3690100 5.5 1022319
11:00+7sse3590100 2.5 1022361
14:00+7ene2493100 5.9 1022248
17:00+5ene61089100 1.7 1023394
20:00+1ene81388100 4.6 1027545
1 march, mon
mon123:00−1ene71291100 1.6 1029634
02:00−3ene71492100 3.3 1030580
05:00−4e71488100 0.7 1031507
08:00−3e61251100 0.8 1033562
11:000ne3548100 0.0 1033918
14:00+1n1254100 0.0 1031910
17:00+1wnw0157100 0.0 1030816
20:00−1sse234994 0.0 1031242